Location: Albany
(35.0000°S, 118.0000°E)
Time: 10:08:08
(UTC-04:00)

Atlas Centaur 2 - Visible Passes

Search period start: 19 April 2015 00:00
Search period end: 29 April 2015 00:00
Orbit: 460 x 1321 km, 30.4° (Epoch: 18 April)

Date Brightness Start Highest point End Pass type
(mag) Time Alt. Az. Time Alt. Az. Time Alt. Az.
19 Apr 3.2 06:13:59 10° W 06:20:42 46° NNW 06:26:01 10° ENE visible
19 Apr 4.0 08:05:07 10° WNW 08:09:09 19° NNW 08:09:29 18° NNW visible
20 Apr 3.5 06:11:54 10° W 06:18:39 42° NNW 06:24:01 10° NE visible
20 Apr 4.2 08:03:35 10° WNW 08:07:01 15° NNW 08:08:02 14° NNW visible
21 Apr 3.7 06:09:52 10° W 06:16:34 38° NNW 06:21:58 10° NE visible
21 Apr 4.5 08:02:27 10° WNW 08:04:52 12° NW 08:06:41 10° NNW visible
22 Apr 4.0 06:07:51 10° W 06:14:26 33° NNW 06:19:49 10° NE visible
23 Apr 4.4 06:05:54 10° W 06:12:16 29° NNW 06:17:32 10° NNE visible
24 Apr 4.7 06:04:02 10° W 06:10:04 24° NNW 06:15:08 10° NNE visible
25 Apr 4.8 06:02:18 10° WNW 06:07:50 21° NNW 06:12:33 10° NNE visible
26 Apr 5.0 06:00:47 10° WNW 06:05:35 17° NW 06:09:42 10° N visible
27 Apr 5.3 05:59:39 10° WNW 06:03:20 13° NW 06:06:26 10° N visible
28 Apr 5.6 06:00:02 10° NW 06:01:04 10° NW 06:01:36 10° NNW visible
